QPF
0.03 0.03 0.04 0.06 0.08 0.06 0.05 0.04 0.05 0.06 0.05 0.04 0.04 0.04 0.06 0.09 0.10 0.12 0.12 0.12 0.09 0.10 0.10 0.10 0.10 0.11 0.17 0.21 0.16 0.12 0.10 0.10 0.09 0.08 0.09 0.11 0.12 0.08 0.06 0.05 0.04 0.03 0.03
0.03 0.03 0.04 0.05 0.07 0.05 0.05 0.04 0.04 0.06 0.05 0.03 0.04 0.04 0.06 0.08 0.09 0.11 0.11 0.09 0.10 0.11 0.11 0.11 0.11 0.10 0.11 0.13 0.12 0.10 0.10 0.11 0.09 0.08 0.10 0.11 0.11 0.08 0.07 0.06 0.05 0.06 0.04
0.07 0.04 0.03 0.04 0.04 0.04 0.04 0.04 0.05 0.06 0.04 0.06 0.05 0.04 0.06 0.08 0.11 0.12 0.12 0.11 0.10 0.11 0.09 0.09 0.09 0.08 0.09 0.11 0.11 0.09 0.09 0.09 0.08 0.07 0.07 0.08 0.08 0.08 0.07 0.06 0.05 0.05 0.05
0.06 0.06 0.03 0.03 0.03 0.03 0.04 0.05 0.05 0.06 0.05 0.05 0.05 0.05 0.05 0.05 0.11 0.13 0.12 0.13 0.14 0.11 0.08 0.08 0.07 0.07 0.07 0.07 0.08 0.10 0.10 0.09 0.06 0.05 0.04 0.04 0.04 0.04 0.04 0.03 0.03 0.03 0.04
0.03 0.04 0.03 0.03 0.03 0.03 0.04 0.04 0.05 0.04 0.03 0.04 0.05 0.08 0.04 0.03 0.05 0.07 0.09 0.13 0.15 0.12 0.08 0.08 0.07 0.07 0.07 0.07 0.07 0.09 0.12 0.10 0.08 0.06 0.04 0.03 0.03 0.04 0.03 0.03 0.02 0.03 0.03
0.04 0.05 0.04 0.02 0.03 0.03 0.04 0.05 0.06 0.04 0.03 0.03 0.04 0.04 0.04 0.05 0.06 0.06 0.06 0.07 0.10 0.13 0.10 0.08 0.09 0.08 0.08 0.06 0.07 0.08 0.09 0.08 0.06 0.04 0.04 0.03 0.03 0.03 0.04 0.04 0.03 0.02 0.03
0.05 0.04 0.04 0.03 0.03 0.03 0.03 0.05 0.06 0.05 0.04 0.03 0.04 0.04 0.05 0.06 0.08 0.05 0.04 0.04 0.04 0.06 0.10 0.09 0.09 0.10 0.07 0.05 0.05 0.06 0.06 0.06 0.05 0.04 0.04 0.04 0.04 0.04 0.03 0.03 0.02 0.02 0.02
0.05 0.04 0.03 0.03 0.03 0.03 0.02 0.03 0.04 0.03 0.03 0.03 0.03 0.03 0.03 0.04 0.05 0.04 0.05 0.07 0.07 0.07 0.06 0.08 0.09 0.10 0.10 0.08 0.06 0.04 0.03 0.04 0.05 0.04 0.04 0.03 0.04 0.03 0.02 0.02 0.02 0.03 0.03
0.06 0.04 0.03 0.02 0.02 0.02 0.02 0.02 0.02 0.03 0.02 0.03 0.02 0.03 0.03 0.03 0.04 0.05 0.07 0.08 0.09 0.09 0.06 0.05 0.07 0.09 0.10 0.09 0.08 0.06 0.04 0.03 0.03 0.03 0.03 0.03 0.02 0.02 0.02 0.02 0.02 0.03 0.03
0.06 0.05 0.04 0.03 0.02 0.02 0.02 0.01 0.02 0.02 0.02 0.03 0.03 0.03 0.04 0.03 0.04 0.04 0.05 0.06 0.05 0.05 0.04 0.05 0.07 0.11 0.12 0.11 0.09 0.08 0.07 0.05 0.04 0.03 0.03 0.03 0.03 0.02 0.02 0.02 0.02 0.04 0.04
0.06 0.05 0.03 0.03 0.02 0.02 0.02 0.02 0.02 0.02 0.02 0.03 0.03 0.04 0.04 0.03 0.03 0.03 0.05 0.05 0.03 0.02 0.01 0.02 0.04 0.06 0.08 0.11 0.09 0.08 0.08 0.07 0.05 0.04 0.03 0.04 0.04 0.03 0.03 0.03 0.04 0.04 0.05
0.06 0.06 0.05 0.04 0.03 0.02 0.03 0.03 0.03 0.04 0.03 0.03 0.04 0.04 0.05 0.03 0.03 0.04 0.03 0.04 0.02 0.01 0.01 0.01 0.02 0.03 0.04 0.05 0.04 0.06 0.07 0.08 0.07 0.05 0.04 0.05 0.04 0.03 0.02 0.03 0.03 0.04 0.04
0.04 0.06 0.06 0.05 0.03 0.04 0.05 0.04 0.04 0.05 0.04 0.04 0.04 0.04 0.05 0.05 0.03 0.04 0.03 0.03 0.01 0.01 0.01 0.01 0.01 0.01 0.02 0.03 0.06 0.07 0.07 0.07 0.06 0.05 0.04 0.05 0.06 0.05 0.03 0.02 0.03 0.03 0.03
0.03 0.04 0.04 0.04 0.04 0.04 0.05 0.04 0.04 0.04 0.04 0.04 0.04 0.05 0.06 0.07 0.05 0.05 0.05 0.06 0.04 0.02 0.02 0.02 0.01 0.01 0.02 0.03 0.08 0.11 0.10 0.07 0.06 0.04 0.03 0.03 0.04 0.06 0.05 0.04 0.03 0.01 0.01
0.03 0.03 0.03 0.04 0.04 0.05 0.04 0.03 0.03 0.03 0.03 0.04 0.05 0.05 0.06 0.05 0.05 0.03 0.05 0.08 0.09 0.07 0.06 0.02 0.01 0.01 0.03 0.03 0.07 0.12 0.07 0.05 0.04 0.04 0.03 0.02 0.02 0.03 0.04 0.04 0.04 0.02 0.01
0.04 0.03 0.03 0.04 0.05 0.04 0.04 0.04 0.03 0.02 0.02 0.02 0.03 0.04 0.05 0.06 0.05 0.03 0.03 0.06 0.09 0.10 0.07 0.02 0.01 0.01 0.04 0.05 0.06 0.07 0.07 0.06 0.04 0.03 0.02 0.02 0.01 0.02 0.03 0.03 0.03 0.02 0.02
0.04 0.03 0.04 0.07 0.07 0.05 0.04 0.05 0.04 0.02 0.02 0.02 0.04 0.04 0.05 0.05 0.04 0.02 0.02 0.03 0.06 0.07 0.05 0.02 0.01 0.02 0.04 0.05 0.05 0.05 0.06 0.05 0.04 0.03 0.02 0.01 0.01 0.01 0.02 0.02 0.01 0.01 0.01
0.04 0.05 0.05 0.06 0.06 0.04 0.05 0.05 0.04 0.03 0.03 0.02 0.03 0.04 0.04 0.04 0.03 0.01 0.01 0.02 0.03 0.04 0.05 0.03 0.02 0.02 0.03 0.05 0.07 0.09 0.09 0.07 0.05 0.04 0.02 0.02 0.02 0.01 0.01 0.01 0.01 0.01 0.01
0.06 0.06 0.05 0.05 0.04 0.05 0.06 0.07 0.06 0.05 0.04 0.03 0.03 0.03 0.02 0.02 0.01 0.01 0.01 0.01 0.02 0.04 0.04 0.03 0.02 0.02 0.03 0.04 0.07 0.11 0.11 0.09 0.07 0.05 0.03 0.03 0.03 0.02 0.02 0.02 0.02 0.02 0.02
0.07 0.08 0.06 0.05 0.04 0.05 0.04 0.04 0.06 0.05 0.05 0.04 0.03 0.02 0.02 0.02 0.01 0.01 0.01 0.01 0.01 0.02 0.03 0.03 0.02 0.02 0.03 0.04 0.06 0.08 0.09 0.09 0.08 0.07 0.05 0.04 0.04 0.04 0.04 0.04 0.05 0.05 0.05
0.06 0.06 0.08 0.08 0.08 0.07 0.06 0.07 0.06 0.04 0.04 0.03 0.02 0.02 0.01 0.02 0.01 0.01 0.01 0.01 0.01 0.02 0.02 0.02 0.02 0.02 0.02 0.04 0.04 0.07 0.09 0.09 0.09 0.07 0.06 0.04 0.04 0.04 0.03 0.04 0.05 0.05 0.05
0.08 0.07 0.07 0.08 0.08 0.06 0.06 0.07 0.05 0.03 0.02 0.02 0.01 0.01 0.01 0.01 0.00 0.01 0.01 0.01 0.02 0.02 0.02 0.02 0.03 0.02 0.02 0.03 0.03 0.06 0.08 0.08 0.06 0.05 0.05 0.04 0.05 0.05 0.04 0.04 0.04 0.04 0.04
0.10 0.08 0.07 0.07 0.06 0.05 0.05 0.05 0.04 0.03 0.02 0.02 0.02 0.02 0.01 0.01 0.01 0.00 0.01 0.01 0.01 0.03 0.03 0.03 0.02 0.02 0.02 0.03 0.06 0.06 0.06 0.06 0.06 0.06 0.07 0.05 0.05 0.06 0.06 0.05 0.05 0.05 0.04
0.09 0.08 0.07 0.07 0.06 0.05 0.05 0.05 0.05 0.04 0.03 0.03 0.02 0.02 0.01 0.01 0.01 0.01 0.02 0.03 0.02 0.02 0.03 0.03 0.02 0.02 0.03 0.04 0.06 0.07 0.07 0.08 0.08 0.08 0.09 0.08 0.07 0.06 0.06 0.06 0.07 0.06 0.05
0.10 0.09 0.10 0.10 0.07 0.06 0.07 0.07 0.07 0.06 0.05 0.04 0.03 0.03 0.01 0.01 0.02 0.03 0.03 0.02 0.01 0.02 0.03 0.04 0.03 0.02 0.04 0.06 0.07 0.07 0.06 0.07 0.06 0.06 0.08 0.08 0.06 0.06 0.06 0.05 0.06 0.08 0.08
0.10 0.11 0.11 0.08 0.06 0.07 0.08 0.09 0.09 0.08 0.08 0.07 0.04 0.03 0.02 0.02 0.03 0.03 0.02 0.02 0.01 0.02 0.03 0.04 0.04 0.03 0.03 0.04 0.05 0.04 0.04 0.05 0.04 0.03 0.04 0.05 0.04 0.05 0.05 0.05 0.05 0.06 0.06
MSLP
1008.80 1008.78 1008.71 1008.63 1008.58 1008.59 1008.66 1008.80 1008.99 1009.22 1009.46 1009.71 1009.97 1010.22 1010.49 1010.76 1011.05 1011.35 1011.64 1011.92 1012.19 1012.44 1012.66 1012.87 1013.07 1013.26 1013.44 1013.61 1013.78 1013.93 1014.08 1014.24 1014.40 1014.59 1014.80 1015.03 1015.27 1015.50 1015.68 1015.79 1015.82 1015.77 1015.67
1008.75 1008.74 1008.70 1008.65 1008.64 1008.68 1008.79 1008.94 1009.15 1009.39 1009.64 1009.91 1010.17 1010.44 1010.72 1010.99 1011.26 1011.54 1011.81 1012.07 1012.31 1012.54 1012.76 1012.96 1013.15 1013.33 1013.50 1013.65 1013.79 1013.91 1014.04 1014.17 1014.33 1014.52 1014.74 1014.99 1015.24 1015.47 1015.66 1015.78 1015.82 1015.78 1015.69
1008.66 1008.65 1008.64 1008.64 1008.69 1008.78 1008.93 1009.13 1009.37 1009.63 1009.91 1010.20 1010.49 1010.77 1011.05 1011.32 1011.57 1011.80 1012.03 1012.23 1012.42 1012.60 1012.79 1012.96 1013.14 1013.31 1013.48 1013.62 1013.75 1013.87 1013.99 1014.12 1014.27 1014.46 1014.69 1014.94 1015.20 1015.45 1015.64 1015.78 1015.83 1015.82 1015.75
1008.60 1008.59 1008.61 1008.67 1008.78 1008.94 1009.15 1009.40 1009.68 1009.98 1010.29 1010.60 1010.91 1011.21 1011.49 1011.75 1011.96 1012.15 1012.30 1012.42 1012.53 1012.64 1012.76 1012.90 1013.05 1013.21 1013.37 1013.53 1013.67 1013.80 1013.93 1014.06 1014.22 1014.41 1014.63 1014.89 1015.15 1015.40 1015.60 1015.75 1015.83 1015.85 1015.83
1008.64 1008.62 1008.67 1008.78 1008.96 1009.19 1009.45 1009.75 1010.06 1010.39 1010.73 1011.07 1011.40 1011.72 1012.00 1012.24 1012.42 1012.54 1012.61 1012.64 1012.65 1012.67 1012.71 1012.79 1012.90 1013.05 1013.22 1013.40 1013.56 1013.72 1013.86 1014.01 1014.17 1014.35 1014.57 1014.81 1015.07 1015.31 1015.53 1015.70 1015.80 1015.86 1015.88
1008.79 1008.76 1008.83 1008.99 1009.21 1009.49 1009.80 1010.13 1010.47 1010.81 1011.16 1011.52 1011.87 1012.20 1012.49 1012.72 1012.87 1012.94 1012.94 1012.88 1012.80 1012.72 1012.68 1012.69 1012.77 1012.90 1013.08 1013.27 1013.46 1013.64 1013.80 1013.95 1014.11 1014.29 1014.48 1014.71 1014.94 1015.18 1015.40 1015.58 1015.72 1015.81 1015.87
1009.03 1009.00 1009.08 1009.26 1009.52 1009.82 1010.14 1010.48 1010.81 1011.15 1011.50 1011.86 1012.23 1012.57 1012.88 1013.12 1013.26 1013.31 1013.26 1013.13 1012.97 1012.82 1012.71 1012.66 1012.70 1012.81 1012.98 1013.18 1013.39 1013.58 1013.75 1013.91 1014.06 1014.21 1014.38 1014.57 1014.79 1015.01 1015.22 1015.41 1015.56 1015.68 1015.77
1009.32 1009.28 1009.37 1009.56 1009.83 1010.12 1010.43 1010.73 1011.04 1011.35 1011.67 1012.03 1012.39 1012.76 1013.09 1013.36 1013.52 1013.57 1013.51 1013.37 1013.17 1012.97 1012.81 1012.72 1012.72 1012.81 1012.97 1013.17 1013.38 1013.57 1013.74 1013.88 1014.00 1014.13 1014.26 1014.42 1014.60 1014.80 1015.00 1015.19 1015.35 1015.49 1015.60
1009.60 1009.57 1009.67 1009.86 1010.10 1010.37 1010.63 1010.88 1011.12 1011.37 1011.65 1011.97 1012.34 1012.72 1013.08 1013.39 1013.60 1013.70 1013.67 1013.54 1013.35 1013.15 1012.97 1012.86 1012.84 1012.91 1013.05 1013.23 1013.43 1013.60 1013.75 1013.86 1013.96 1014.05 1014.14 1014.26 1014.41 1014.58 1014.76 1014.95 1015.11 1015.26 1015.38
1009.84 1009.83 1009.93 1010.11 1010.32 1010.54 1010.73 1010.90 1011.06 1011.23 1011.45 1011.73 1012.07 1012.46 1012.86 1013.21 1013.49 1013.65 1013.69 1013.62 1013.47 1013.30 1013.14 1013.04 1013.01 1013.07 1013.19 1013.35 1013.51 1013.66 1013.78 1013.86 1013.92 1013.97 1014.03 1014.12 1014.24 1014.39 1014.55 1014.72 1014.89 1015.03 1015.15
1009.98 1010.01 1010.13 1010.30 1010.49 1010.65 1010.78 1010.86 1010.93 1011.01 1011.15 1011.37 1011.68 1012.06 1012.47 1012.87 1013.20 1013.43 1013.55 1013.56 1013.48 1013.37 1013.25 1013.18 1013.16 1013.22 1013.32 1013.46 1013.59 1013.71 1013.79 1013.84 1013.87 1013.90 1013.94 1014.00 1014.11 1014.24 1014.40 1014.56 1014.71 1014.84 1014.95
1010.01 1010.09 1010.24 1010.42 1010.59 1010.72 1010.78 1010.79 1010.78 1010.78 1010.84 1010.99 1011.25 1011.59 1012.00 1012.41 1012.78 1013.07 1013.26 1013.34 1013.34 1013.30 1013.24 1013.21 1013.23 1013.29 1013.38 1013.50 1013.62 1013.71 1013.77 1013.80 1013.81 1013.83 1013.86 1013.93 1014.03 1014.17 1014.32 1014.48 1014.62 1014.74 1014.84
1009.92 1010.06 1010.25 1010.45 1010.62 1010.73 1010.76 1010.72 1010.65 1010.59 1010.58 1010.67 1010.86 1011.16 1011.52 1011.92 1012.29 1012.61 1012.84 1012.98 1013.05 1013.07 1013.08 1013.10 1013.15 1013.23 1013.33 1013.45 1013.55 1013.63 1013.69 1013.72 1013.74 1013.77 1013.82 1013.91 1014.02 1014.17 1014.33 1014.49 1014.63 1014.74 1014.82
1009.67 1009.88 1010.12 1010.35 1010.55 1010.67 1010.70 1010.66 1010.57 1010.47 1010.42 1010.45 1010.59 1010.82 1011.12 1011.46 1011.80 1012.10 1012.34 1012.51 1012.62 1012.70 1012.76 1012.83 1012.92 1013.03 1013.16 1013.28 1013.40 1013.49 1013.55 1013.61 1013.65 1013.71 1013.80 1013.92 1014.07 1014.24 1014.42 1014.58 1014.72 1014.83 1014.90
1009.28 1009.54 1009.82 1010.10 1010.34 1010.49 1010.56 1010.55 1010.48 1010.40 1010.34 1010.34 1010.43 1010.59 1010.82 1011.09 1011.37 1011.62 1011.83 1012.00 1012.12 1012.23 1012.33 1012.44 1012.57 1012.72 1012.88 1013.03 1013.17 1013.29 1013.38 1013.47 1013.56 1013.66 1013.80 1013.96 1014.15 1014.36 1014.56 1014.73 1014.87 1014.98 1015.04
1008.75 1009.03 1009.35 1009.67 1009.94 1010.16 1010.30 1010.35 1010.35 1010.31 1010.28 1010.29 1010.35 1010.47 1010.63 1010.82 1011.02 1011.20 1011.36 1011.49 1011.61 1011.72 1011.85 1011.99 1012.16 1012.35 1012.54 1012.73 1012.90 1013.06 1013.20 1013.33 1013.47 1013.62 1013.81 1014.01 1014.24 1014.47 1014.69 1014.88 1015.03 1015.13 1015.20
1008.11 1008.39 1008.70 1009.04 1009.36 1009.63 1009.84 1009.99 1010.08 1010.13 1010.16 1010.21 1010.28 1010.38 1010.49 1010.62 1010.75 1010.86 1010.96 1011.06 1011.15 1011.26 1011.39 1011.56 1011.76 1011.98 1012.21 1012.43 1012.65 1012.84 1013.02 1013.20 1013.38 1013.58 1013.80 1014.04 1014.30 1014.54 1014.77 1014.97 1015.12 1015.23 1015.30
1007.42 1007.64 1007.93 1008.26 1008.59 1008.91 1009.19 1009.43 1009.61 1009.76 1009.89 1010.01 1010.12 1010.23 1010.34 1010.43 1010.51 1010.58 1010.64 1010.70 1010.77 1010.87 1011.01 1011.19 1011.41 1011.66 1011.92 1012.17 1012.42 1012.65 1012.86 1013.07 1013.29 1013.52 1013.76 1014.02 1014.28 1014.53 1014.76 1014.95 1015.10 1015.21 1015.30
1006.73 1006.88 1007.11 1007.40 1007.71 1008.04 1008.36 1008.66 1008.93 1009.17 1009.39 1009.59 1009.77 1009.93 1010.06 1010.17 1010.25 1010.30 1010.35 1010.40 1010.46 1010.56 1010.71 1010.90 1011.14 1011.40 1011.68 1011.96 1012.23 1012.48 1012.72 1012.95 1013.18 1013.42 1013.66 1013.92 1014.16 1014.40 1014.61 1014.78 1014.92 1015.04 1015.13
1006.12 1006.18 1006.32 1006.53 1006.79 1007.08 1007.40 1007.71 1008.03 1008.33 1008.63 1008.91 1009.16 1009.39 1009.59 1009.74 1009.87 1009.96 1010.03 1010.10 1010.18 1010.30 1010.46 1010.66 1010.91 1011.18 1011.47 1011.76 1012.04 1012.31 1012.56 1012.80 1013.04 1013.27 1013.50 1013.73 1013.94 1014.14 1014.32 1014.46 1014.58 1014.68 1014.78
1005.63 1005.59 1005.63 1005.74 1005.90 1006.11 1006.36 1006.64 1006.94 1007.26 1007.59 1007.93 1008.26 1008.57 1008.85 1009.10 1009.31 1009.47 1009.61 1009.74 1009.88 1010.03 1010.21 1010.43 1010.68 1010.96 1011.25 1011.54 1011.83 1012.10 1012.36 1012.60 1012.83 1013.05 1013.26 1013.45 1013.63 1013.78 1013.91 1014.01 1014.09 1014.17 1014.26
1005.27 1005.15 1005.09 1005.07 1005.11 1005.19 1005.31 1005.49 1005.72 1006.00 1006.32 1006.68 1007.07 1007.46 1007.85 1008.21 1008.53 1008.81 1009.06 1009.28 1009.49 1009.69 1009.91 1010.15 1010.41 1010.69 1010.98 1011.26 1011.55 1011.82 1012.08 1012.33 1012.56 1012.76 1012.95 1013.11 1013.24 1013.34 1013.42 1013.47 1013.51 1013.55 1013.62
1005.03 1004.85 1004.68 1004.54 1004.42 1004.33 1004.29 1004.32 1004.41 1004.60 1004.87 1005.22 1005.64 1006.11 1006.60 1007.08 1007.55 1007.97 1008.35 1008.69 1008.99 1009.27 1009.54 1009.80 1010.07 1010.34 1010.62 1010.91 1011.19 1011.47 1011.73 1011.99 1012.22 1012.42 1012.59 1012.73 1012.83 1012.88 1012.90 1012.90 1012.89 1012.89 1012.92
1004.85 1004.62 1004.36 1004.09 1003.81 1003.54 1003.31 1003.15 1003.08 1003.13 1003.31 1003.63 1004.07 1004.60 1005.19 1005.81 1006.42 1007.00 1007.53 1008.00 1008.41 1008.77 1009.08 1009.37 1009.65 1009.92 1010.19 1010.46 1010.75 1011.03 1011.31 1011.58 1011.83 1012.05 1012.22 1012.35 1012.42 1012.44 1012.42 1012.37 1012.31 1012.26 1012.25
1004.64 1004.39 1004.06 1003.67 1003.23 1002.78 1002.36 1002.00 1001.75 1001.66 1001.75 1002.02 1002.46 1003.04 1003.73 1004.48 1005.25 1005.99 1006.67 1007.27 1007.79 1008.22 1008.59 1008.90 1009.18 1009.44 1009.70 1009.97 1010.26 1010.55 1010.85 1011.15 1011.42 1011.66 1011.85 1011.98 1012.05 1012.06 1012.01 1011.92 1011.82 1011.73 1011.67
1004.34 1004.07 1003.68 1003.20 1002.63 1002.02 1001.41 1000.88 1000.48 1000.26 1000.26 1000.49 1000.93 1001.57 1002.35 1003.23 1004.14 1005.02 1005.85 1006.57 1007.19 1007.70 1008.10 1008.44 1008.71 1008.96 1009.21 1009.47 1009.75 1010.06 1010.38 1010.70 1011.01 1011.28 1011.50 1011.66 1011.73 1011.74 1011.68 1011.57 1011.44 1011.32 1011.22
Thickness
5774 5774 5773 5773 5773 5772 5770 5769 5768 5768 5767 5765 5765 5763 5762 5760 5759 5757 5756 5754 5753 5752 5751 5750 5748 5746 5745 5743 5741 5739 5737 5736 5734 5732 5731 5729 5728 5727 5726 5725 5724 5722 5721
5774 5774 5773 5773 5772 5771 5770 5769 5768 5766 5765 5764 5763 5762 5761 5760 5758 5756 5755 5754 5753 5751 5750 5749 5748 5746 5745 5743 5741 5739 5737 5735 5734 5732 5730 5729 5727 5726 5725 5724 5723 5721 5720
5774 5774 5773 5772 5772 5771 5770 5768 5767 5765 5764 5763 5762 5762 5760 5759 5758 5756 5754 5753 5752 5751 5749 5748 5747 5746 5745 5743 5741 5740 5737 5736 5734 5732 5730 5728 5726 5725 5724 5723 5721 5721 5719
5775 5773 5772 5771 5771 5771 5770 5768 5765 5763 5762 5761 5760 5760 5760 5758 5757 5756 5754 5753 5751 5750 5748 5747 5746 5745 5744 5743 5741 5739 5738 5736 5734 5732 5730 5728 5726 5724 5723 5722 5721 5720 5718
5775 5773 5772 5771 5771 5769 5768 5767 5764 5762 5759 5758 5758 5758 5758 5758 5757 5755 5754 5752 5751 5749 5748 5747 5746 5745 5744 5743 5741 5739 5737 5736 5734 5731 5729 5727 5725 5724 5722 5721 5720 5719 5717
5774 5773 5771 5770 5770 5768 5766 5765 5762 5761 5759 5758 5758 5756 5757 5757 5756 5754 5753 5751 5750 5748 5747 5746 5745 5744 5743 5742 5741 5739 5737 5736 5733 5731 5729 5727 5725 5723 5721 5720 5719 5718 5716
5774 5772 5771 5769 5768 5766 5764 5763 5761 5759 5757 5757 5753 5750 5751 5754 5753 5753 5752 5751 5749 5748 5746 5745 5745 5744 5743 5741 5740 5738 5737 5736 5733 5731 5729 5727 5724 5723 5721 5719 5718 5717 5715
5774 5773 5770 5769 5767 5765 5763 5762 5760 5756 5755 5756 5751 5744 5740 5742 5747 5751 5750 5749 5748 5747 5745 5744 5743 5743 5741 5740 5738 5737 5735 5734 5733 5731 5728 5726 5724 5722 5720 5719 5717 5716 5714
5774 5772 5771 5769 5766 5765 5762 5761 5760 5756 5752 5753 5753 5747 5738 5734 5739 5744 5747 5747 5746 5745 5745 5744 5742 5741 5740 5739 5737 5736 5734 5733 5732 5730 5727 5725 5723 5721 5719 5717 5716 5714 5713
5774 5772 5770 5768 5765 5764 5762 5761 5760 5758 5754 5750 5751 5752 5749 5745 5737 5735 5740 5744 5745 5744 5743 5743 5742 5740 5739 5737 5736 5734 5733 5732 5730 5728 5726 5724 5722 5720 5718 5716 5715 5713 5711
5773 5771 5769 5767 5764 5763 5762 5761 5759 5758 5756 5753 5750 5749 5747 5745 5743 5736 5732 5736 5739 5741 5741 5741 5740 5738 5737 5735 5734 5733 5732 5730 5729 5727 5725 5723 5721 5719 5717 5715 5714 5712 5710
5770 5769 5768 5765 5764 5762 5761 5760 5759 5757 5755 5754 5752 5750 5746 5743 5740 5737 5733 5732 5732 5736 5738 5738 5737 5737 5735 5734 5733 5732 5730 5729 5727 5725 5723 5721 5719 5718 5716 5714 5712 5710 5709
5767 5767 5766 5765 5763 5762 5760 5759 5757 5756 5754 5752 5751 5749 5748 5746 5744 5741 5735 5731 5730 5731 5733 5735 5736 5735 5734 5733 5732 5730 5729 5727 5725 5723 5721 5719 5717 5716 5714 5712 5710 5708 5706
5768 5767 5766 5764 5762 5761 5759 5757 5756 5754 5753 5752 5750 5749 5747 5746 5746 5743 5738 5732 5726 5725 5727 5729 5733 5733 5732 5731 5731 5729 5727 5725 5723 5721 5719 5717 5715 5713 5711 5709 5707 5705 5703
5768 5767 5764 5762 5761 5759 5758 5756 5753 5752 5751 5750 5749 5748 5746 5746 5745 5744 5741 5737 5729 5720 5720 5725 5728 5731 5731 5730 5729 5727 5725 5723 5721 5719 5717 5715 5713 5711 5709 5707 5704 5702 5700
5767 5765 5763 5761 5760 5758 5757 5754 5752 5750 5749 5748 5747 5746 5745 5744 5743 5742 5741 5738 5734 5728 5721 5725 5727 5729 5729 5729 5727 5725 5724 5722 5720 5718 5715 5713 5711 5709 5707 5704 5702 5699 5697
5766 5763 5761 5759 5757 5756 5755 5752 5750 5748 5746 5745 5744 5743 5742 5743 5740 5739 5738 5736 5733 5730 5723 5724 5726 5727 5726 5725 5724 5722 5721 5719 5718 5715 5713 5711 5709 5707 5704 5702 5699 5697 5694
5764 5762 5760 5757 5755 5754 5752 5750 5747 5746 5744 5742 5741 5741 5740 5740 5738 5737 5735 5734 5732 5730 5725 5721 5722 5722 5722 5722 5720 5718 5718 5716 5715 5713 5711 5709 5707 5704 5702 5700 5697 5695 5692
5762 5760 5758 5755 5753 5751 5749 5748 5746 5744 5743 5741 5740 5738 5737 5736 5734 5733 5733 5731 5730 5730 5726 5721 5719 5719 5719 5718 5716 5714 5714 5713 5712 5711 5708 5706 5704 5702 5700 5698 5695 5692 5689
5760 5757 5756 5753 5751 5749 5748 5747 5744 5742 5741 5740 5738 5737 5735 5734 5732 5730 5730 5728 5727 5724 5722 5719 5716 5715 5714 5714 5711 5709 5707 5708 5707 5708 5706 5704 5702 5700 5698 5696 5693 5690 5687
5759 5756 5753 5751 5749 5747 5746 5744 5741 5740 5737 5736 5735 5735 5734 5733 5732 5730 5728 5725 5724 5720 5717 5714 5712 5710 5708 5707 5706 5706 5703 5703 5702 5703 5701 5700 5698 5696 5695 5693 5690 5688 5685
5755 5752 5749 5747 5745 5745 5744 5742 5740 5737 5734 5732 5731 5731 5731 5730 5729 5728 5726 5725 5723 5719 5714 5711 5708 5706 5705 5705 5704 5702 5699 5695 5694 5698 5696 5694 5693 5692 5691 5690 5689 5686 5684
5749 5747 5745 5744 5742 5741 5741 5739 5736 5734 5732 5730 5728 5726 5727 5726 5724 5723 5722 5721 5719 5718 5716 5712 5707 5706 5704 5703 5701 5698 5695 5693 5692 5695 5692 5689 5688 5687 5688 5688 5686 5684 5681
5743 5742 5740 5739 5738 5738 5738 5735 5733 5730 5728 5727 5725 5724 5721 5720 5719 5717 5715 5713 5712 5712 5711 5710 5708 5707 5706 5704 5701 5698 5695 5692 5691 5691 5690 5685 5684 5683 5685 5685 5683 5681 5678
5738 5737 5736 5734 5733 5733 5733 5732 5729 5726 5723 5722 5721 5720 5718 5716 5715 5712 5709 5706 5705 5706 5707 5706 5706 5704 5703 5701 5699 5694 5689 5685 5683 5684 5685 5682 5680 5678 5679 5679 5678 5676 5674
5733 5732 5731 5730 5729 5729 5729 5727 5724 5721 5717 5716 5715 5714 5713 5712 5710 5707 5704 5701 5698 5699 5700 5699 5699 5699 5698 5697 5695 5692 5688 5682 5679 5678 5681 5677 5675 5672 5670 5673 5672 5671 5668